[[{"header":{"parameterUnit":"m.s-1","parameterCategory":2,"la1":30.2992,"la2":30.254,"lo1":-89.0895,"lo2":-89.0443,"dy":0.0025,"dx":0.0025,"nx":19,"ny":19,"refTime":"2026-05-04T21:00:00:Z","depth":"0","parameterNumber":2,"parameterNumberName":"U-component_of_CURRENTS"},"data":[0,0,0,-0.1347,-0.1348,-0.1421,-0.1421,-0.1478,-0.1478,0,0,0,0,0,0,0,0,0,0,0,-0.1311,-0.1312,-0.1346,-0.1349,-0.1421,-0.1421,-0.1478,-0.1478,0,0,0,0,0,0,0,0,0,0,0,-0.1311,-0.1312,-0.1312,-0.1349,-0.1421,-0.1422,-0.1477,-0.143,0,0,0,0,0,0,0,0,0,0,-0.1364,-0.1329,-0.1311,-0.1312,-0.1349,-0.1421,-0.1422,-0.1428,-0.1433,-0.1436,0,-0.1446,0,-0.147,-0.1482,-0.1482,0,0,0,-0.1343,-0.1325,-0.1357,-0.1312,-0.135,-0.1421,-0.1387,-0.1431,-0.1437,-0.1442,-0.1447,-0.145,-0.1471,-0.1482,-0.1482,-0.1601,-0.1602,0,0,-0.1339,-0.1313,-0.1353,-0.136,-0.1367,-0.1385,-0.1389,-0.1435,-0.1432,-0.1447,-0.1452,-0.1472,-0.1482,-0.1483,-0.16,-0.1601,0,0,0,-0.1331,-0.131,-0.1341,-0.1357,-0.1377,-0.1387,-0.1392,-0.1429,-0.1443,-0.1452,-0.1472,-0.1482,-0.1483,-0.1599,-0.1601,-0.1507,0,0,0,-0.1328,-0.1307,-0.1339,-0.1323,-0.1377,-0.1408,-0.1385,-0.144,-0.1446,-0.1472,-0.1482,-0.1484,-0.1598,-0.16,-0.1507,-0.1434,0,0,0,-0.1308,-0.1304,-0.1315,-0.1322,-0.1359,-0.1408,-0.1424,-0.1442,-0.1459,-0.1482,-0.1484,-0.1598,-0.16,-0.1507,-0.1437,-0.1358,0,0,0,-0.1277,-0.1288,-0.1314,-0.1329,-0.1358,-0.1402,-0.1424,-0.1452,-0.147,-0.1483,-0.1598,-0.1601,-0.1507,-0.1438,-0.1361,-0.1247,-0.1226,0,0,-0.1275,-0.1287,-0.1296,-0.1323,-0.1353,-0.1391,-0.1423,-0.1455,-0.1511,-0.1577,-0.158,-0.1507,-0.1437,-0.1359,-0.1375,-0.1348,0,0,0,-0.1286,-0.1289,-0.1303,-0.1326,-0.1367,-0.1387,-0.1441,-0.1475,-0.1538,-0.1536,-0.1579,-0.1539,-0.149,-0.1431,-0.1412,-0.1391,-0.1611,-0.161,-0.161,-0.1235,-0.1268,-0.1279,-0.1321,-0.1346,-0.1394,-0.1402,-0.147,-0.153,-0.1569,-0.1516,-0.1465,-0.1407,-0.139,-0.1373,-0.1597,-0.1597,-0.1596,-0.1596,-0.1215,-0.1215,-0.1255,-0.1276,-0.1307,-0.1334,-0.1387,-0.1416,-0.1427,-0.1519,-0.1477,-0.1404,-0.1362,-0.1352,-0.1591,-0.1592,-0.1593,-0.1593,-0.1594,-0.1168,-0.1172,-0.1195,-0.122,-0.1234,-0.1283,-0.1259,-0.1297,-0.1336,-0.1289,-0.1232,-0.1232,-0.1169,-0.1276,-0.1275,-0.1274,-0.1274,-0.1273,-0.1273,-0.11,-0.1128,-0.1123,-0.1157,-0.1155,-0.1161,-0.1177,-0.1163,-0.1114,-0.111,-0.1109,-0.1163,-0.1366,-0.1316,-0.1263,-0.1265,-0.1266,-0.1267,-0.1268,-0.1026,-0.1048,-0.1033,-0.1029,-0.1029,-0.0985,-0.1019,-0.0937,-0.0908,-0.0847,-0.0872,-0.1013,-0.1015,-0.1033,-0.0978,-0.084,-0.084,-0.084,-0.084,-0.0962,-0.0979,-0.0944,-0.0918,-0.0892,-0.0896,-0.0741,-0.0634,-0.0603,-0.0563,-0.0688,-0.0752,-0.077,-0.0765,-0.0788,-0.0732,-0.0535,-0.0535,-0.0535,-0.09,-0.0906,-0.0856,-0.0858,-0.0826,-0.078,-0.0589,-0.0301,-0.0298,-0.0527,-0.0677,-0.069,-0.0798,-0.0828,-0.0841,-0.0875,-0.0793,0,0]},{"header":{"parameterUnit":"m.s-1","parameterCategory":2,"la1":30.2992,"la2":30.254,"lo1":-89.0895,"lo2":-89.0443,"dy":0.0025,"dx":0.0025,"nx":19,"ny":19,"refTime":"2026-05-04T21:00:00:Z","depth":"0","parameterNumber":3,"parameterNumberName":"V-component_of_CURRENTS"},"data":[0,0,0,0.0112,0.0113,0.0181,0.0182,0.0351,0.0352,0,0,0,0,0,0,0,0,0,0,0,0.009,0.009,0.0112,0.0113,0.0181,0.0182,0.0351,0.0352,0,0,0,0,0,0,0,0,0,0,0,0.009,0.009,0.009,0.0114,0.0181,0.0182,0.035,0.0282,0,0,0,0,0,0,0,0,0,0,0.0207,0.0174,0.009,0.0091,0.0114,0.0181,0.0182,0.0278,0.0286,0.0339,0,0.034,0,0.0346,0.0364,0.0365,0,0,0,0.0127,0.0166,0.0178,0.0091,0.0114,0.0181,0.0155,0.0282,0.0291,0.0351,0.0343,0.0348,0.0349,0.0366,0.0366,0.0438,0.0437,0,0,0.0123,0.0115,0.0171,0.0184,0.0122,0.0152,0.0156,0.0287,0.0299,0.0343,0.0352,0.0352,0.0367,0.0368,0.0438,0.0437,0,0,0,0.0103,0.0112,0.012,0.0178,0.0181,0.0154,0.0159,0.0293,0.0293,0.0354,0.0354,0.0368,0.037,0.0439,0.0438,0.027,0,0,0,0.0102,0.01,0.0118,0.0116,0.0178,0.0228,0.0162,0.0284,0.0299,0.0353,0.0368,0.0372,0.0439,0.0438,0.0276,0.0234,0,0,0,0.0089,0.0099,0.0101,0.0115,0.0137,0.0225,0.0233,0.0287,0.0299,0.0365,0.0372,0.044,0.0438,0.0281,0.0243,0.0223,0,0,0,0.0086,0.0074,0.0101,0.009,0.0136,0.0124,0.0232,0.0259,0.0303,0.0369,0.0439,0.0438,0.0283,0.0248,0.0228,0.0343,0.0332,0,0,0.0063,0.0072,0.0061,0.0086,0.0051,0.0117,0.0082,0.0199,0.0305,0.0407,0.0408,0.0274,0.0243,0.0224,0.0267,0.0258,0,0,0,0.0048,0.0036,0.0031,0.0023,0.0028,0.0017,0.0101,0.0145,0.0229,0.0324,0.0295,0.0282,0.0274,0.0354,0.0346,0.0634,0.0432,0.0432,0.0432,-0.0003,-0.0006,-0.004,-0.0052,-0.0061,-0.0046,-0.0044,0.0037,0.0137,0.0149,0.0158,0.0051,0.0132,0.0128,0.0421,0.0158,0.0158,0.0157,0.0157,-0.0067,-0.0093,-0.0102,-0.0134,-0.015,-0.017,-0.0145,-0.0101,-0.0062,0.0033,0.0033,0.019,0.011,0.0427,0.0146,0.0148,0.0149,0.015,0.0151,-0.0113,-0.0127,-0.0138,-0.0189,-0.023,-0.0235,-0.0267,-0.0238,-0.0166,-0.0198,-0.0025,-0.002,0.0254,-0.0179,-0.0179,-0.0179,-0.018,-0.018,-0.018,-0.015,-0.0167,-0.0208,-0.0249,-0.0278,-0.0311,-0.0324,-0.032,-0.0242,-0.0162,-0.016,0.027,-0.0049,-0.0041,-0.0185,-0.0184,-0.0184,-0.0183,-0.0183,-0.0202,-0.0203,-0.0271,-0.0305,-0.0371,-0.0398,-0.04,-0.0338,-0.0309,-0.0256,0.0256,-0.0123,-0.0036,-0.0025,-0.0014,-0.0143,-0.0143,-0.0143,-0.0143,-0.0232,-0.0241,-0.033,-0.0394,-0.0453,-0.0448,-0.041,-0.0262,0.0097,0.0391,0.0432,0.0555,0.054,0.0669,0.0664,0.0693,0.0747,0.0748,0.075,-0.0268,-0.0293,-0.0363,-0.0426,-0.0491,-0.0485,-0.038,-0.0031,0.0597,0.0812,0.0805,0.0767,0.0973,0.0927,0.1152,0.1121,0.1177,0,0]}],[{"header":{"parameterUnit":"m.s-1","parameterCategory":2,"la1":30.2992,"la2":30.254,"lo1":-89.0895,"lo2":-89.0443,"dy":0.0025,"dx":0.0025,"nx":19,"ny":19,"refTime":"2026-05-04T21:00:00:Z","depth":"2","parameterNumber":2,"parameterNumberName":"U-component_of_CURRENTS"},"data":[0,0,0,-0.133,-0.1332,-0.1411,-0.1411,-0.1474,-0.1474,0,0,0,0,0,0,0,0,0,0,0,-0.1292,-0.1292,-0.133,-0.1332,-0.1411,-0.1411,-0.1474,-0.1474,0,0,0,0,0,0,0,0,0,0,0,-0.1292,-0.1292,-0.1293,-0.1332,-0.1411,-0.1411,-0.1474,-0.1422,0,0,0,0,0,0,0,0,0,0,-0.135,-0.1318,-0.1292,-0.1293,-0.1333,-0.1411,-0.1411,-0.142,-0.1425,-0.1429,0,-0.144,0,-0.1466,-0.1478,-0.1478,0,0,0,-0.1326,-0.1314,-0.1342,-0.1293,-0.1334,-0.1411,-0.1374,-0.1423,-0.1429,-0.1436,-0.1441,-0.1444,-0.1467,-0.1479,-0.1479,-0.1613,-0.1614,0,0,-0.1322,-0.13,-0.1338,-0.1346,-0.1353,-0.1371,-0.1376,-0.1427,-0.1427,-0.1442,-0.1446,-0.1468,-0.1479,-0.1479,-0.1612,-0.1613,0,0,0,-0.1313,-0.1297,-0.1325,-0.1343,-0.1364,-0.1374,-0.1379,-0.1425,-0.1436,-0.1447,-0.1468,-0.1479,-0.148,-0.1611,-0.1613,-0.1528,0,0,0,-0.131,-0.1293,-0.1322,-0.1309,-0.1363,-0.1401,-0.1376,-0.1432,-0.144,-0.1468,-0.1479,-0.1481,-0.161,-0.1612,-0.1528,-0.1464,0,0,0,-0.1289,-0.1291,-0.1301,-0.1308,-0.1348,-0.1401,-0.1415,-0.1435,-0.1453,-0.1478,-0.1481,-0.1609,-0.1611,-0.1527,-0.1466,-0.1394,0,0,0,-0.1262,-0.1281,-0.13,-0.1325,-0.1347,-0.14,-0.1415,-0.1453,-0.1475,-0.148,-0.161,-0.1612,-0.1527,-0.1467,-0.1396,-0.131,-0.1294,0,0,-0.1273,-0.1281,-0.1297,-0.1317,-0.1361,-0.1388,-0.1434,-0.1468,-0.152,-0.1586,-0.159,-0.1528,-0.1466,-0.1395,-0.1454,-0.1432,0,0,0,-0.1293,-0.1297,-0.1314,-0.1344,-0.1389,-0.1421,-0.1467,-0.1498,-0.1564,-0.1548,-0.1603,-0.1568,-0.1523,-0.148,-0.1465,-0.1624,-0.1624,-0.1624,-0.1623,-0.1255,-0.1291,-0.1312,-0.1357,-0.1397,-0.1449,-0.1462,-0.1526,-0.1568,-0.1611,-0.1554,-0.1519,-0.1478,-0.1464,-0.1635,-0.1635,-0.1635,-0.1635,-0.1634,-0.1245,-0.1249,-0.1302,-0.1331,-0.138,-0.1415,-0.1482,-0.1498,-0.1497,-0.1576,-0.1537,-0.1465,-0.144,-0.1629,-0.163,-0.1631,-0.1631,-0.1632,-0.1632,-0.1199,-0.1206,-0.1229,-0.1274,-0.1309,-0.1372,-0.137,-0.1413,-0.1424,-0.1375,-0.1324,-0.1325,-0.1391,-0.1353,-0.1352,-0.1352,-0.1351,-0.1351,-0.1351,-0.1129,-0.1161,-0.1156,-0.1208,-0.1212,-0.1247,-0.1293,-0.1284,-0.1243,-0.1221,-0.1221,-0.1423,-0.1432,-0.1378,-0.1342,-0.1343,-0.1345,-0.1345,-0.1346,-0.1055,-0.1075,-0.1064,-0.1062,-0.1078,-0.106,-0.1138,-0.1091,-0.1055,-0.0993,-0.1132,-0.114,-0.1144,-0.1158,-0.1101,-0.0994,-0.0994,-0.0994,-0.0994,-0.099,-0.1006,-0.0972,-0.095,-0.0939,-0.097,-0.0872,-0.0931,-0.0974,-0.1043,-0.1042,-0.1119,-0.113,-0.114,-0.1155,-0.1101,-0.0995,-0.0995,-0.0996,-0.0927,-0.0933,-0.0884,-0.0889,-0.0869,-0.085,-0.0755,-0.0773,-0.0957,-0.1007,-0.1163,-0.0971,-0.1084,-0.1101,-0.1121,-0.1144,-0.1059,0,0]},{"header":{"parameterUnit":"m.s-1","parameterCategory":2,"la1":30.2992,"la2":30.254,"lo1":-89.0895,"lo2":-89.0443,"dy":0.0025,"dx":0.0025,"nx":19,"ny":19,"refTime":"2026-05-04T21:00:00:Z","depth":"2","parameterNumber":3,"parameterNumberName":"V-component_of_CURRENTS"},"data":[0,0,0,-0.0012,-0.0011,0.0063,0.0064,0.024,0.0241,0,0,0,0,0,0,0,0,0,0,0,-0.0036,-0.0036,-0.0012,-0.0011,0.0063,0.0064,0.0239,0.0241,0,0,0,0,0,0,0,0,0,0,0,-0.0036,-0.0036,-0.0035,-0.001,0.0063,0.0064,0.0239,0.0167,0,0,0,0,0,0,0,0,0,0,0.0086,0.0049,-0.0036,-0.0035,-0.001,0.0063,0.0064,0.0162,0.0171,0.0225,0,0.0226,0,0.0234,0.0254,0.0254,0,0,0,0.0004,0.0041,0.0057,-0.0035,-0.001,0.0063,0.0034,0.0167,0.0177,0.0237,0.0229,0.0235,0.0236,0.0255,0.0256,0.0346,0.0345,0,0,0.0,-0.0011,0.0049,0.0062,-0.0,0.0032,0.0036,0.0172,0.0183,0.0229,0.0239,0.0239,0.0256,0.0257,0.0346,0.0346,0,0,0,-0.0022,-0.0014,-0.0003,0.0056,0.006,0.0033,0.0039,0.0177,0.0179,0.024,0.0241,0.0257,0.0259,0.0347,0.0346,0.0165,0,0,0,-0.0023,-0.0028,-0.0006,-0.001,0.0057,0.0109,0.0041,0.017,0.0185,0.0241,0.0257,0.0261,0.0347,0.0346,0.0171,0.0112,0,0,0,-0.0038,-0.0029,-0.0026,-0.0011,0.0013,0.0106,0.0117,0.0173,0.0186,0.0254,0.0262,0.0347,0.0346,0.0176,0.0121,0.0112,0,0,0,-0.0044,-0.0054,-0.0026,-0.0036,0.0012,0.0004,0.0116,0.0147,0.0194,0.0258,0.0347,0.0346,0.0177,0.0127,0.0117,0.0257,0.0247,0,0,-0.0065,-0.0056,-0.0065,-0.004,-0.0078,-0.0004,-0.0039,0.0086,0.0203,0.0312,0.0314,0.0169,0.0122,0.0113,0.0204,0.0196,0,0,0,-0.0079,-0.0091,-0.0097,-0.0108,-0.01,-0.0124,-0.0023,0.0032,0.013,0.0226,0.0201,0.0179,0.0178,0.0274,0.0267,0.0342,0.0342,0.0342,0.0342,-0.0128,-0.0134,-0.0173,-0.0192,-0.0207,-0.0191,-0.0187,-0.0087,0.0034,0.0056,0.0053,-0.0044,0.0054,0.0051,0.0071,0.0071,0.007,0.0069,0.0069,-0.0193,-0.0223,-0.0246,-0.0281,-0.0315,-0.0335,-0.0308,-0.0247,-0.0179,-0.0072,-0.0064,0.0106,0.0033,0.0055,0.0058,0.006,0.0061,0.0062,0.0063,-0.0239,-0.0258,-0.027,-0.0337,-0.0394,-0.0409,-0.0447,-0.0411,-0.0301,-0.0327,-0.0113,-0.0107,-0.0135,-0.0289,-0.029,-0.029,-0.029,-0.029,-0.0291,-0.0276,-0.0298,-0.0341,-0.0394,-0.0429,-0.0483,-0.0508,-0.0488,-0.0377,-0.0266,-0.0263,-0.0162,-0.0151,-0.0151,-0.0296,-0.0295,-0.0294,-0.0294,-0.0294,-0.0332,-0.0329,-0.0402,-0.0437,-0.0517,-0.0561,-0.0583,-0.0489,-0.0429,-0.0342,-0.0207,-0.0207,-0.0113,-0.0103,-0.0098,-0.0221,-0.0221,-0.0221,-0.0221,-0.0362,-0.037,-0.0461,-0.0529,-0.0599,-0.0612,-0.0588,-0.0407,-0.0214,0.0002,-0.0007,0.0086,0.0078,0.019,0.0194,0.0207,0.0163,0.0164,0.0165,-0.0401,-0.0426,-0.0497,-0.0561,-0.0636,-0.0648,-0.0594,-0.0332,0.0149,0.0178,0.0046,-0.0193,-0.0078,-0.0081,0.008,0.0089,0.0108,0,0]}],[{"header":{"parameterUnit":"m.s-1","parameterCategory":2,"la1":30.2992,"la2":30.254,"lo1":-89.0895,"lo2":-89.0443,"dy":0.0025,"dx":0.0025,"nx":19,"ny":19,"refTime":"2026-05-04T21:00:00:Z","depth":"4","parameterNumber":2,"parameterNumberName":"U-component_of_CURRENTS"},"data":[0,0,0,-0.1068,-0.107,-0.1188,-0.1188,-0.1286,-0.1286,0,0,0,0,0,0,0,0,0,0,0,-0.1029,-0.103,-0.1068,-0.1071,-0.1188,-0.1188,-0.1286,-0.1286,0,0,0,0,0,0,0,0,0,0,0,-0.1029,-0.103,-0.1031,-0.1071,-0.1188,-0.1189,-0.1285,-0.1212,0,0,0,0,0,0,0,0,0,0,-0.1105,-0.1067,-0.103,-0.1031,-0.1072,-0.1188,-0.1189,-0.1209,-0.1216,-0.1216,0,-0.1236,0,-0.1259,-0.1291,-0.1291,0,0,0,-0.1077,-0.106,-0.1099,-0.1031,-0.1073,-0.1187,-0.1137,-0.1213,-0.1222,-0.1225,-0.1237,-0.1241,-0.1261,-0.1292,-0.1292,-0.139,-0.139,0,0,-0.107,-0.1044,-0.1093,-0.1104,-0.1105,-0.1133,-0.114,-0.1219,-0.1223,-0.1238,-0.1244,-0.1262,-0.1292,-0.1293,-0.1389,-0.139,0,0,0,-0.1048,-0.104,-0.1077,-0.1099,-0.1123,-0.1136,-0.1145,-0.122,-0.1234,-0.1245,-0.1263,-0.1292,-0.1293,-0.1389,-0.139,-0.1444,0,0,0,-0.1044,-0.1026,-0.1074,-0.1059,-0.1122,-0.1178,-0.1143,-0.1229,-0.1239,-0.1263,-0.1292,-0.1294,-0.1388,-0.1389,-0.1441,-0.1461,0,0,0,-0.1024,-0.1024,-0.104,-0.1057,-0.1106,-0.1177,-0.1197,-0.1232,-0.1249,-0.1291,-0.1294,-0.1388,-0.1389,-0.1438,-0.1457,-0.1489,0,0,0,-0.099,-0.1013,-0.1039,-0.1082,-0.1105,-0.1201,-0.1197,-0.1269,-0.131,-0.1293,-0.1388,-0.139,-0.1438,-0.1455,-0.1487,-0.1257,0,0,0,-0.0999,-0.1013,-0.1043,-0.107,-0.1154,-0.1185,-0.1279,-0.1325,-0.1326,-0.1358,-0.1361,-0.1442,-0.1457,-0.1489,-0.1335,0,0,0,0,-0.1034,-0.1055,-0.1088,-0.1145,-0.1216,-0.129,-0.1341,-0.1367,-0.142,-0.1355,-0.1453,-0.1461,-0.1479,-0.1338,-0.1396,-0.1396,-0.1395,-0.1395,-0.1395,-0.0994,-0.1057,-0.1116,-0.1202,-0.1267,-0.1369,-0.1434,-0.1476,-0.1467,-0.1499,-0.1513,-0.1586,-0.144,-0.1524,-0.1524,-0.1525,-0.1525,-0.1525,-0.1525,-0.101,-0.104,-0.1138,-0.1217,-0.1312,-0.1393,-0.1511,-0.1537,-0.1614,-0.1581,-0.1596,-0.1415,-0.1531,-0.153,-0.1529,-0.1528,-0.1528,-0.1527,-0.1527,-0.0966,-0.0988,-0.1063,-0.1181,-0.1288,-0.1402,-0.1482,-0.1584,-0.1647,-0.1691,-0.1522,-0.1624,-0.1609,-0.169,-0.169,-0.169,-0.1691,-0.1691,-0.1691,-0.0873,-0.0953,-0.1006,-0.1141,-0.1203,-0.1304,-0.1468,-0.1519,-0.1624,-0.156,-0.1698,-0.1641,-0.1636,-0.1619,-0.1695,-0.1694,-0.1694,-0.1693,-0.1693,-0.0809,-0.0843,-0.0911,-0.0974,-0.1109,-0.1167,-0.1341,-0.1406,-0.1456,-0.1456,-0.149,-0.1499,-0.1456,-0.1456,-0.143,-0.1454,-0.1451,-0.1448,0,-0.0734,-0.0766,-0.0823,-0.0883,-0.0943,-0.1078,-0.1083,-0.1177,-0.1297,-0.1254,-0.1464,-0.15,-0.1505,-0.1453,-0.1449,-0.1416,0,0,0,-0.069,-0.0714,-0.0721,-0.0799,-0.0857,-0.0945,-0.1074,-0.1062,-0.1284,-0.1261,-0.1381,-0.1398,-0.1544,-0.1707,-0.1663,-0.1656,-0.1627,0,0]},{"header":{"parameterUnit":"m.s-1","parameterCategory":2,"la1":30.2992,"la2":30.254,"lo1":-89.0895,"lo2":-89.0443,"dy":0.0025,"dx":0.0025,"nx":19,"ny":19,"refTime":"2026-05-04T21:00:00:Z","depth":"4","parameterNumber":3,"parameterNumberName":"V-component_of_CURRENTS"},"data":[0,0,0,-0.0113,-0.0113,-0.0049,-0.0048,0.0124,0.0125,0,0,0,0,0,0,0,0,0,0,0,-0.0131,-0.013,-0.0113,-0.0112,-0.0049,-0.0048,0.0124,0.0125,0,0,0,0,0,0,0,0,0,0,0,-0.0131,-0.013,-0.013,-0.0112,-0.0049,-0.0048,0.0123,0.0058,0,0,0,0,0,0,0,0,0,0,-0.0013,-0.0062,-0.0131,-0.013,-0.0112,-0.0049,-0.0048,0.0054,0.0062,0.0114,0,0.0112,0,0.0114,0.0137,0.0138,0,0,0,-0.0091,-0.0069,-0.0044,-0.013,-0.0112,-0.0049,-0.0072,0.0058,0.0067,0.0125,0.0114,0.012,0.0117,0.0138,0.0139,0.0293,0.0294,0,0,-0.0095,-0.0118,-0.0051,-0.0039,-0.0109,-0.0074,-0.007,0.0062,0.0064,0.0114,0.0123,0.012,0.0139,0.0141,0.0293,0.0293,0,0,0,-0.0119,-0.0121,-0.0101,-0.0046,-0.0046,-0.0073,-0.0068,0.0058,0.0066,0.0125,0.0122,0.014,0.0142,0.0293,0.0293,0.0198,0,0,0,-0.012,-0.0136,-0.0103,-0.0116,-0.005,-0.0009,-0.0075,0.0057,0.0072,0.0121,0.014,0.0144,0.0292,0.0293,0.02,0.017,0,0,0,-0.0131,-0.0138,-0.0134,-0.0118,-0.01,-0.0012,0.0004,0.006,0.007,0.0138,0.0145,0.0292,0.0293,0.0201,0.0173,0.024,0,0,0,-0.0151,-0.0173,-0.0135,-0.0158,-0.0101,-0.0065,0.0003,0.0033,0.0081,0.0141,0.0292,0.0293,0.0202,0.0174,0.024,0.0183,0,0,0,-0.0193,-0.0179,-0.0192,-0.0157,-0.0153,-0.0072,-0.0038,0.0045,0.0123,0.0258,0.0261,0.0199,0.0173,0.024,0.0239,0,0,0,0,-0.0215,-0.0223,-0.0214,-0.0204,-0.0158,-0.0101,-0.0014,0.0051,0.0154,0.0153,0.0245,0.0233,0.0277,0.0247,0.0298,0.0297,0.0297,0.0297,0.0297,-0.0281,-0.0263,-0.0282,-0.0245,-0.0214,-0.0112,-0.0051,0.0066,0.0135,0.0173,0.0188,0.0219,0.0183,0.0223,0.0222,0.0222,0.0221,0.0221,0.0221,-0.0344,-0.0356,-0.0331,-0.0345,-0.0272,-0.0226,-0.0071,-0.0008,0.0144,0.0172,0.022,0.0188,0.0213,0.0214,0.0216,0.0217,0.0217,0.0218,0.0218,-0.0378,-0.0385,-0.04,-0.0418,-0.0396,-0.0304,-0.0237,-0.0107,0.0064,0.0102,0.0162,0.0202,0.0177,0.0153,0.0153,0.0153,0.0153,0.0153,0.0153,-0.0408,-0.0423,-0.0471,-0.0491,-0.0509,-0.0482,-0.0323,-0.0199,-0.0011,0.0082,0.0108,0.0198,0.0201,0.0178,0.0156,0.0155,0.0155,0.0155,0.0155,-0.0446,-0.0459,-0.053,-0.057,-0.0616,-0.0599,-0.0478,-0.0207,-0.0055,0.0106,0.0107,0.0109,0.0161,0.0166,0.0143,0.011,0.0109,0.0108,0,-0.0468,-0.0482,-0.0575,-0.0647,-0.0689,-0.0655,-0.0493,-0.0309,-0.0056,-0.0089,-0.0022,-0.0035,-0.0029,0.0016,0.002,-0.0015,0,0,0,-0.0495,-0.0519,-0.0586,-0.0661,-0.0718,-0.0564,-0.0447,-0.0347,-0.0146,0.0048,0.0089,0.0094,0.0109,0.0162,0.025,0.0252,0.0223,0,0]}]]